Retour au catalogue

FENGYUN 1C DEB

ActifSSO
NORAD 29993·DEBRIS·🇨🇳 China

Lancé May 10, 1999 depuis Taiyuan Satellite Launch Center

Loading…

Prochains Passages (prochaines 24 heures)

TLE

FraisSource: Space-Track

Époque: Sep 14, 2026, 19:29 UTC

1 29993U 99025LT  26257.81228012  .00000176  00000-0  12736-3 0  9999
2 29993  98.7608 291.9675 0038134 254.7660 104.9292 14.08224283 10563

Suivez FENGYUN 1C DEB en temps réel avec AllMySat

Download on the App Store